Location: Eaton
(41.3139°N, 82.0207°W)
Time: 12:26:54
(UTC+00:00)

SPOT 5 - Pass Details

Date: 17 June 2021
Orbit: 622 x 815 km, 98.2° (Epoch: 27 July)

Event Time Altitude Azimuth Distance (km) Brightness Sun altitude
Exits shadow 03:30:01 29° 192° (SSW) 1,391 3.9 -19.7°
Maximum altitude 03:32:30 58° 259° (W) 899 3.4 -19.9°
Drops below altitude 10° 03:37:26 10° 339° (NNW) 2,265 6.6 -20.3°
Sets 03:39:43 0° 343° (NNW) 3,162 7.7 -20.5°
